QPF
0.00 0.00 0.00 0.00 0.00 0.00 0.00 0.00 0.00 0.00 0.00 0.00 0.00 0.00 0.00 0.00 0.00 0.00 0.00 0.00 0.00 0.00 0.00 0.00 0.00 0.00 0.00 0.00 0.00 0.00 0.00 0.00 0.00 0.00 0.00 0.00 0.03 0.06 0.04 0.04 0.02 0.00 0.02 0.01 0.00
0.00 0.00 0.00 0.00 0.00 0.00 0.00 0.00 0.00 0.00 0.00 0.00 0.00 0.00 0.00 0.00 0.00 0.00 0.00 0.00 0.00 0.00 0.00 0.00 0.00 0.00 0.00 0.00 0.00 0.00 0.00 0.00 0.00 0.00 0.00 0.00 0.01 0.10 0.09 0.05 0.01 0.00 0.02 0.00 0.00
0.00 0.00 0.00 0.00 0.00 0.00 0.00 0.00 0.00 0.00 0.00 0.00 0.00 0.00 0.00 0.00 0.00 0.00 0.00 0.00 0.00 0.00 0.00 0.00 0.00 0.00 0.00 0.00 0.00 0.00 0.00 0.00 0.00 0.00 0.00 0.00 0.00 0.01 0.08 0.30 0.22 0.04 0.01 0.00 0.00
0.00 0.00 0.00 0.00 0.00 0.00 0.00 0.00 0.00 0.00 0.00 0.00 0.00 0.00 0.00 0.00 0.00 0.00 0.00 0.00 0.00 0.00 0.00 0.00 0.00 0.00 0.00 0.00 0.00 0.00 0.00 0.00 0.00 0.00 0.00 0.00 0.00 0.00 0.13 0.18 0.36 0.28 0.03 0.00 0.00
0.00 0.00 0.00 0.00 0.00 0.00 0.00 0.00 0.00 0.00 0.00 0.00 0.00 0.00 0.00 0.00 0.00 0.00 0.00 0.00 0.00 0.00 0.00 0.00 0.00 0.00 0.00 0.00 0.00 0.00 0.00 0.00 0.00 0.00 0.00 0.00 0.00 0.00 0.03 0.14 0.70 0.43 0.03 0.00 0.00
0.00 0.00 0.00 0.00 0.00 0.00 0.00 0.00 0.00 0.00 0.00 0.00 0.00 0.00 0.00 0.00 0.00 0.00 0.00 0.00 0.00 0.00 0.00 0.00 0.00 0.00 0.00 0.00 0.00 0.00 0.00 0.00 0.00 0.00 0.00 0.00 0.00 0.00 0.01 0.09 0.50 0.21 0.01 0.00 0.00
0.00 0.00 0.00 0.00 0.00 0.00 0.00 0.00 0.00 0.00 0.00 0.00 0.00 0.00 0.00 0.00 0.00 0.00 0.00 0.00 0.00 0.00 0.00 0.00 0.00 0.00 0.00 0.00 0.00 0.00 0.00 0.00 0.00 0.00 0.00 0.00 0.00 0.00 0.00 0.08 0.46 0.14 0.00 0.00 0.00
0.00 0.00 0.00 0.00 0.00 0.00 0.00 0.00 0.00 0.00 0.00 0.00 0.00 0.00 0.00 0.00 0.00 0.00 0.00 0.00 0.00 0.00 0.00 0.00 0.00 0.00 0.00 0.00 0.00 0.00 0.00 0.00 0.00 0.00 0.00 0.00 0.00 0.00 0.00 0.01 0.13 0.26 0.04 0.00 0.00
0.00 0.00 0.00 0.00 0.00 0.00 0.00 0.00 0.00 0.00 0.00 0.00 0.00 0.00 0.00 0.00 0.00 0.00 0.00 0.00 0.00 0.00 0.00 0.00 0.00 0.00 0.00 0.00 0.00 0.00 0.00 0.00 0.00 0.00 0.00 0.00 0.00 0.00 0.00 0.00 0.01 0.04 0.03 0.02 0.00
0.00 0.00 0.00 0.00 0.00 0.00 0.00 0.00 0.00 0.00 0.00 0.00 0.00 0.00 0.00 0.00 0.00 0.00 0.00 0.00 0.00 0.00 0.00 0.00 0.00 0.00 0.00 0.00 0.00 0.00 0.00 0.00 0.00 0.00 0.00 0.00 0.00 0.00 0.00 0.01 0.00 0.01 0.04 0.05 0.03
0.00 0.00 0.00 0.00 0.00 0.00 0.00 0.00 0.00 0.00 0.00 0.00 0.00 0.00 0.00 0.00 0.00 0.00 0.00 0.00 0.00 0.00 0.00 0.00 0.00 0.00 0.00 0.00 0.00 0.00 0.00 0.00 0.00 0.00 0.00 0.00 0.00 0.00 0.00 0.00 0.00 0.00 0.02 0.05 0.11
0.00 0.00 0.00 0.00 0.00 0.00 0.00 0.00 0.00 0.00 0.00 0.00 0.00 0.00 0.00 0.00 0.00 0.00 0.00 0.00 0.00 0.00 0.00 0.00 0.00 0.00 0.00 0.00 0.00 0.00 0.00 0.00 0.00 0.00 0.00 0.00 0.00 0.00 0.00 0.00 0.00 0.01 0.04 0.10 0.22
0.00 0.00 0.00 0.00 0.00 0.00 0.00 0.00 0.00 0.00 0.00 0.00 0.00 0.00 0.00 0.00 0.00 0.00 0.00 0.00 0.00 0.00 0.00 0.00 0.00 0.00 0.00 0.00 0.00 0.00 0.00 0.00 0.00 0.00 0.00 0.00 0.00 0.00 0.00 0.00 0.00 0.04 0.14 0.23 0.48
0.00 0.00 0.00 0.00 0.00 0.00 0.00 0.00 0.00 0.00 0.00 0.00 0.00 0.00 0.00 0.00 0.00 0.00 0.00 0.00 0.00 0.00 0.00 0.00 0.00 0.00 0.00 0.00 0.00 0.00 0.00 0.00 0.00 0.00 0.00 0.00 0.00 0.00 0.00 0.00 0.00 0.00 0.01 0.02 0.13
0.00 0.00 0.00 0.00 0.00 0.00 0.00 0.00 0.00 0.00 0.01 0.00 0.00 0.00 0.00 0.00 0.00 0.00 0.00 0.00 0.00 0.00 0.00 0.00 0.00 0.00 0.00 0.00 0.00 0.00 0.00 0.00 0.00 0.00 0.00 0.00 0.00 0.00 0.00 0.00 0.00 0.00 0.00 0.01 0.08
0.00 0.00 0.00 0.00 0.00 0.00 0.00 0.00 0.00 0.00 0.02 0.00 0.00 0.00 0.00 0.00 0.00 0.00 0.00 0.00 0.00 0.00 0.00 0.00 0.00 0.00 0.00 0.00 0.00 0.00 0.00 0.00 0.00 0.00 0.00 0.00 0.00 0.00 0.00 0.00 0.00 0.00 0.01 0.01 0.01
0.00 0.00 0.00 0.00 0.00 0.00 0.00 0.00 0.01 0.01 0.00 0.00 0.00 0.00 0.00 0.00 0.00 0.00 0.00 0.00 0.00 0.00 0.00 0.00 0.00 0.00 0.00 0.00 0.00 0.00 0.00 0.00 0.00 0.00 0.00 0.00 0.00 0.00 0.00 0.00 0.00 0.00 0.00 0.00 0.00
0.00 0.00 0.00 0.00 0.00 0.00 0.00 0.00 0.00 0.00 0.00 0.00 0.00 0.00 0.00 0.00 0.00 0.00 0.00 0.00 0.00 0.00 0.00 0.00 0.00 0.00 0.00 0.00 0.00 0.00 0.00 0.01 0.05 0.06 0.01 0.00 0.00 0.02 0.00 0.00 0.00 0.00 0.00 0.00 0.00
0.00 0.00 0.00 0.00 0.00 0.00 0.00 0.00 0.00 0.00 0.00 0.00 0.00 0.00 0.00 0.00 0.00 0.00 0.00 0.00 0.00 0.00 0.00 0.00 0.00 0.00 0.00 0.00 0.00 0.00 0.00 0.00 0.02 0.03 0.04 0.01 0.00 0.01 0.00 0.00 0.00 0.00 0.00 0.00 0.14
0.00 0.00 0.00 0.00 0.00 0.00 0.00 0.00 0.00 0.00 0.00 0.00 0.00 0.00 0.00 0.00 0.00 0.00 0.00 0.00 0.00 0.00 0.00 0.00 0.00 0.00 0.00 0.00 0.00 0.00 0.00 0.00 0.00 0.01 0.00 0.00 0.02 0.02 0.02 0.01 0.00 0.00 0.01 0.07 0.07
0.00 0.00 0.00 0.00 0.00 0.00 0.00 0.00 0.00 0.00 0.00 0.00 0.00 0.00 0.00 0.00 0.00 0.00 0.00 0.00 0.00 0.00 0.00 0.00 0.00 0.00 0.00 0.00 0.00 0.00 0.00 0.00 0.00 0.01 0.04 0.02 0.03 0.02 0.01 0.01 0.01 0.02 0.02 0.14 0.33
0.00 0.00 0.00 0.00 0.00 0.00 0.00 0.00 0.00 0.00 0.00 0.00 0.00 0.00 0.00 0.00 0.00 0.00 0.00 0.00 0.00 0.00 0.00 0.00 0.00 0.00 0.00 0.00 0.00 0.00 0.00 0.00 0.00 0.00 0.01 0.02 0.01 0.00 0.01 0.01 0.00 0.01 0.03 0.06 0.20
0.00 0.00 0.00 0.00 0.00 0.00 0.00 0.00 0.00 0.00 0.00 0.00 0.00 0.00 0.00 0.00 0.00 0.00 0.00 0.00 0.00 0.00 0.00 0.00 0.00 0.00 0.00 0.00 0.00 0.00 0.00 0.00 0.00 0.00 0.00 0.00 0.02 0.01 0.00 0.00 0.00 0.03 0.07 0.06 0.22
0.00 0.00 0.00 0.00 0.00 0.00 0.00 0.00 0.00 0.00 0.00 0.00 0.00 0.00 0.00 0.00 0.00 0.00 0.00 0.00 0.00 0.00 0.00 0.00 0.00 0.00 0.00 0.00 0.00 0.00 0.00 0.00 0.00 0.01 0.00 0.02 0.02 0.01 0.00 0.00 0.00 0.00 0.09 0.16 0.31
0.00 0.00 0.00 0.00 0.00 0.00 0.00 0.00 0.00 0.00 0.00 0.00 0.00 0.00 0.00 0.00 0.00 0.00 0.00 0.00 0.00 0.00 0.00 0.00 0.00 0.00 0.00 0.00 0.00 0.00 0.00 0.00 0.00 0.02 0.06 0.03 0.08 0.04 0.00 0.00 0.00 0.00 0.01 0.03 0.13
0.00 0.00 0.00 0.00 0.00 0.00 0.00 0.00 0.00 0.00 0.00 0.00 0.00 0.00 0.00 0.00 0.00 0.00 0.00 0.00 0.00 0.00 0.00 0.00 0.00 0.00 0.00 0.00 0.00 0.01 0.01 0.00 0.00 0.00 0.00 0.00 0.02 0.00 0.00 0.00 0.00 0.00 0.01 0.10 0.12
0.00 0.00 0.00 0.00 0.00 0.00 0.00 0.00 0.00 0.00 0.00 0.00 0.00 0.00 0.00 0.00 0.00 0.00 0.00 0.00 0.00 0.00 0.00 0.00 0.00 0.00 0.00 0.00 0.00 0.03 0.00 0.00 0.00 0.00 0.00 0.00 0.00 0.00 0.00 0.00 0.00 0.00 0.01 0.05 0.10
MSLP
1017.58 1017.36 1017.30 1016.96 1016.65 1016.52 1016.23 1015.99 1015.72 1015.50 1015.21 1014.95 1014.59 1014.34 1013.87 1013.54 1012.93 1012.24 1011.24 1008.37 1007.78 1007.51 1007.69 1007.56 1007.45 1007.29 1007.46 1007.52 1007.19 1006.90 1007.29 1006.85 1005.87 1004.68 1004.24 1003.73 1004.78 1005.18 1007.19 1008.22 1005.32 1004.87 1005.28 1006.22 1007.67
1017.39 1017.28 1017.12 1016.74 1016.45 1016.38 1016.11 1015.73 1015.55 1015.33 1015.04 1014.74 1014.42 1014.30 1013.78 1013.54 1012.82 1010.57 1007.14 1006.82 1006.96 1007.19 1007.08 1007.35 1007.10 1006.93 1007.41 1007.02 1006.99 1006.74 1006.47 1005.66 1004.59 1003.77 1003.91 1003.71 1003.92 1006.87 1007.12 1006.82 1005.47 1004.46 1004.78 1005.49 1006.81
1017.30 1017.07 1016.71 1016.39 1016.21 1016.12 1015.88 1015.51 1015.29 1015.07 1014.85 1014.53 1014.27 1014.17 1013.76 1013.51 1012.35 1007.75 1005.94 1006.22 1006.84 1006.94 1006.95 1006.98 1006.89 1007.13 1007.06 1006.40 1006.46 1006.06 1005.68 1005.10 1003.73 1003.08 1003.16 1003.68 1004.68 1004.66 1004.61 1006.42 1007.76 1006.91 1006.34 1006.58 1006.69
1017.16 1016.63 1016.45 1016.14 1015.93 1015.81 1015.55 1015.19 1014.96 1014.88 1014.67 1014.41 1014.22 1013.94 1013.53 1013.33 1010.55 1006.61 1006.40 1006.50 1006.62 1006.75 1006.97 1006.83 1006.84 1006.94 1006.55 1006.27 1005.53 1005.47 1004.82 1004.27 1003.38 1002.66 1002.65 1003.04 1003.97 1004.30 1005.79 1007.87 1008.31 1007.24 1008.02 1007.71 1007.40
1016.72 1016.44 1016.12 1015.75 1015.65 1015.37 1015.18 1014.89 1014.77 1014.63 1014.56 1014.38 1014.13 1013.80 1012.92 1012.17 1008.47 1006.05 1006.18 1006.68 1006.73 1006.68 1006.74 1006.81 1006.79 1006.72 1006.32 1005.62 1004.97 1004.84 1004.33 1003.40 1002.77 1002.52 1002.48 1002.40 1002.97 1004.32 1006.41 1007.63 1008.04 1010.99 1009.65 1008.63 1008.06
1016.36 1016.07 1015.82 1015.47 1015.24 1015.08 1014.80 1014.67 1014.48 1014.37 1014.42 1014.22 1014.00 1013.79 1013.19 1010.49 1005.50 1005.36 1005.83 1006.43 1006.29 1006.41 1006.29 1006.30 1006.02 1005.64 1005.53 1005.25 1004.99 1004.13 1003.58 1003.00 1002.45 1002.26 1002.33 1002.80 1003.76 1003.98 1007.01 1006.91 1008.17 1008.48 1009.58 1008.90 1008.72
1016.17 1015.81 1015.47 1015.15 1014.97 1014.79 1014.47 1014.61 1014.13 1014.13 1014.11 1013.94 1013.88 1013.39 1011.99 1008.41 1004.98 1005.07 1005.20 1005.30 1005.14 1005.51 1005.71 1005.42 1005.30 1005.55 1004.95 1004.80 1003.98 1003.85 1003.68 1002.97 1002.46 1002.23 1002.25 1002.52 1003.19 1004.19 1006.06 1007.22 1007.24 1007.04 1008.10 1008.22 1007.65
1015.72 1015.38 1015.09 1014.82 1014.61 1014.57 1014.41 1014.17 1013.84 1013.85 1013.73 1013.74 1013.63 1013.11 1010.22 1005.64 1004.85 1005.05 1004.66 1004.58 1004.40 1004.53 1004.74 1004.63 1004.55 1004.59 1004.57 1004.45 1004.26 1004.42 1003.97 1003.44 1002.33 1002.15 1001.90 1002.55 1003.34 1004.75 1005.65 1006.11 1007.29 1006.99 1006.64 1007.06 1006.87
1015.32 1014.97 1014.62 1014.57 1014.64 1014.35 1014.04 1013.68 1013.43 1013.40 1013.39 1013.47 1013.32 1012.27 1008.28 1004.87 1004.66 1004.08 1004.12 1004.31 1004.11 1004.21 1004.38 1004.31 1004.62 1005.07 1005.12 1005.42 1005.46 1004.79 1004.62 1003.64 1002.36 1001.61 1001.60 1001.83 1002.58 1003.45 1005.33 1005.98 1006.57 1006.45 1005.51 1006.73 1007.40
1014.75 1014.74 1014.72 1014.54 1014.32 1014.14 1013.69 1013.06 1012.88 1013.23 1012.89 1012.56 1011.80 1011.09 1007.06 1004.36 1003.64 1003.65 1003.60 1003.84 1004.12 1004.10 1004.36 1004.53 1004.99 1005.37 1005.56 1005.94 1005.95 1005.16 1004.59 1003.77 1002.79 1001.72 1001.12 1001.78 1001.84 1002.13 1004.01 1004.48 1005.34 1006.55 1006.81 1007.01 1007.62
1014.75 1014.58 1014.29 1014.19 1014.19 1014.06 1013.38 1012.41 1013.05 1012.56 1011.11 1009.54 1008.07 1006.78 1004.40 1003.41 1003.05 1003.37 1003.28 1003.69 1004.03 1004.27 1004.58 1004.57 1005.51 1005.32 1004.84 1004.76 1004.48 1004.30 1003.98 1003.38 1002.08 1001.00 1001.08 1000.92 1000.75 1001.26 1001.50 1002.94 1003.80 1004.22 1005.22 1006.34 1007.99
1014.43 1014.32 1014.23 1014.16 1013.97 1013.92 1014.13 1012.27 1009.30 1008.40 1007.81 1006.52 1005.75 1005.35 1003.56 1003.16 1003.04 1002.85 1003.05 1003.88 1004.13 1004.53 1004.26 1004.73 1004.81 1003.84 1003.56 1003.40 1003.60 1003.56 1003.33 1002.68 1001.76 1000.85 1000.73 1000.70 1000.76 1000.90 1000.76 1001.34 1002.05 1003.27 1004.80 1006.51 1008.17
1014.34 1014.20 1014.00 1013.83 1013.68 1013.83 1012.31 1009.97 1007.75 1007.37 1007.46 1004.96 1003.68 1003.34 1003.07 1003.19 1002.57 1002.58 1002.87 1003.19 1003.92 1004.29 1004.24 1004.33 1003.44 1002.81 1002.72 1002.54 1002.75 1002.67 1002.63 1002.23 1001.81 1001.18 1000.82 1001.13 1000.99 1000.79 1000.44 1000.98 1001.91 1003.01 1004.63 1006.04 1007.01
1014.05 1013.93 1013.81 1013.75 1013.99 1011.42 1010.19 1007.80 1007.37 1007.46 1007.43 1004.39 1002.93 1002.57 1002.63 1002.68 1002.47 1002.17 1002.33 1002.79 1003.35 1003.86 1003.92 1003.74 1002.97 1002.82 1002.67 1002.54 1002.56 1002.49 1002.04 1001.97 1002.11 1002.21 1002.08 1001.65 1002.03 1001.60 1001.31 1001.43 1002.02 1003.14 1003.90 1004.60 1005.65
1013.94 1013.82 1013.74 1013.80 1013.10 1011.02 1008.27 1007.26 1007.31 1007.71 1007.20 1004.56 1002.74 1002.02 1002.11 1002.52 1002.34 1002.35 1002.34 1002.60 1003.21 1003.84 1004.44 1004.61 1004.09 1003.64 1003.88 1004.56 1004.18 1004.47 1003.13 1002.11 1002.37 1002.83 1003.03 1003.07 1003.62 1002.96 1002.53 1003.12 1003.63 1003.68 1003.59 1003.57 1003.70
1013.71 1013.62 1013.60 1013.40 1012.76 1009.63 1008.00 1007.61 1007.49 1008.08 1007.11 1005.01 1003.84 1003.13 1002.88 1002.68 1002.99 1003.01 1003.24 1003.22 1003.40 1004.60 1004.92 1005.23 1005.43 1005.34 1005.48 1004.94 1005.07 1005.02 1004.43 1003.37 1003.21 1003.85 1004.55 1005.11 1006.19 1006.26 1007.71 1008.71 1006.99 1006.62 1006.68 1004.63 1002.59
1013.42 1013.28 1013.21 1012.25 1010.35 1007.91 1007.85 1007.92 1008.41 1007.95 1006.28 1006.34 1005.33 1004.62 1004.13 1003.86 1003.99 1004.42 1004.79 1005.45 1006.13 1006.58 1007.11 1006.75 1006.78 1006.65 1006.51 1005.95 1005.48 1005.99 1006.45 1007.24 1006.67 1006.54 1006.90 1008.08 1008.49 1010.57 1010.06 1010.08 1009.32 1007.66 1006.63 1004.08 1002.86
1012.96 1012.78 1011.60 1010.50 1008.95 1008.49 1008.39 1008.72 1008.68 1007.89 1007.61 1007.12 1006.45 1005.56 1005.16 1005.37 1005.50 1005.84 1006.30 1007.26 1008.13 1008.61 1008.98 1008.98 1008.20 1008.10 1007.88 1007.99 1007.72 1007.43 1008.37 1010.86 1010.79 1010.75 1010.69 1009.99 1009.52 1010.26 1010.74 1010.02 1008.87 1008.15 1007.68 1003.45 1001.22
1012.43 1011.54 1010.55 1008.16 1008.02 1009.02 1009.27 1008.85 1008.94 1008.65 1008.66 1007.98 1007.03 1006.73 1006.72 1006.94 1007.35 1007.47 1007.80 1008.88 1009.44 1010.12 1010.93 1010.66 1010.20 1009.50 1008.97 1008.77 1008.83 1008.64 1009.03 1009.16 1010.67 1012.46 1011.95 1011.30 1009.71 1010.06 1011.03 1010.19 1010.65 1009.96 1009.59 1009.20 1008.06
1012.47 1011.13 1008.99 1006.77 1006.49 1007.74 1008.83 1008.78 1008.91 1009.08 1008.93 1008.60 1008.51 1008.49 1008.65 1008.85 1008.96 1008.81 1008.64 1009.79 1010.09 1010.82 1011.36 1011.92 1011.41 1010.54 1010.03 1009.25 1009.07 1009.35 1009.50 1009.76 1010.81 1012.10 1011.92 1011.15 1012.08 1013.44 1013.35 1013.25 1012.49 1012.07 1012.26 1011.73 1011.58
1012.36 1010.57 1007.31 1006.13 1006.28 1007.61 1008.77 1008.70 1008.87 1009.05 1009.23 1009.30 1009.45 1009.69 1009.89 1010.36 1010.25 1009.98 1009.88 1010.53 1010.67 1011.26 1011.77 1012.90 1013.22 1012.51 1011.43 1010.85 1010.66 1010.04 1010.41 1010.98 1011.49 1012.21 1013.39 1013.76 1014.31 1014.65 1014.80 1014.60 1013.77 1013.47 1013.09 1013.25 1013.71
1011.89 1010.09 1007.02 1006.39 1007.45 1007.46 1008.77 1009.20 1009.72 1009.37 1009.69 1009.67 1009.81 1010.39 1010.68 1011.08 1011.07 1010.69 1010.50 1010.57 1010.83 1011.44 1012.65 1013.50 1013.85 1013.88 1012.78 1011.74 1011.43 1011.96 1012.96 1013.21 1013.82 1014.27 1014.38 1014.49 1015.20 1015.57 1015.32 1015.43 1015.10 1014.65 1013.88 1014.25 1014.88
1012.34 1009.58 1007.05 1006.81 1008.26 1008.90 1008.90 1009.42 1009.78 1009.88 1010.22 1010.36 1010.40 1010.89 1011.18 1011.54 1011.63 1011.29 1011.15 1011.01 1011.31 1012.10 1013.16 1013.86 1014.40 1014.44 1013.35 1012.51 1012.04 1012.71 1013.79 1014.46 1014.58 1015.01 1015.66 1016.42 1016.68 1016.57 1016.11 1015.68 1015.27 1014.95 1014.67 1014.93 1015.26
1012.62 1010.01 1008.52 1008.33 1009.13 1009.56 1009.62 1009.51 1009.83 1010.00 1010.19 1010.71 1010.93 1011.02 1011.46 1011.87 1011.94 1011.87 1011.66 1011.64 1011.84 1012.46 1013.20 1013.96 1014.82 1015.24 1015.12 1014.49 1013.92 1013.84 1014.63 1015.07 1015.63 1015.95 1016.39 1016.66 1016.92 1016.66 1016.42 1016.45 1016.31 1015.94 1015.76 1016.36 1016.29
1012.23 1010.89 1010.14 1010.14 1010.25 1010.24 1010.31 1010.16 1009.82 1009.96 1010.32 1010.77 1010.95 1011.20 1011.71 1012.21 1012.36 1012.37 1012.39 1012.49 1012.61 1012.95 1013.47 1014.42 1015.19 1015.35 1015.26 1014.65 1014.07 1014.86 1015.26 1015.39 1016.02 1016.70 1017.14 1017.09 1017.19 1017.07 1016.78 1016.82 1017.08 1017.21 1016.97 1017.48 1018.02
1012.99 1012.41 1011.25 1010.87 1010.57 1010.48 1010.43 1010.08 1010.21 1010.22 1010.63 1010.95 1011.22 1011.54 1011.96 1012.34 1012.75 1012.87 1013.04 1013.31 1013.35 1013.32 1013.93 1014.48 1015.29 1015.46 1015.41 1014.70 1014.95 1015.63 1015.94 1016.00 1016.35 1016.49 1016.74 1016.89 1017.00 1017.40 1017.34 1017.34 1018.01 1017.61 1017.62 1017.95 1018.09
1014.11 1013.08 1012.36 1011.40 1010.88 1010.50 1010.28 1010.19 1010.31 1010.62 1010.75 1010.99 1011.26 1011.81 1012.16 1012.50 1012.70 1012.82 1012.89 1013.13 1013.35 1013.75 1014.24 1014.62 1015.06 1015.68 1015.65 1015.37 1015.29 1015.64 1016.36 1016.62 1016.66 1016.59 1016.95 1017.08 1017.09 1017.23 1017.69 1018.23 1018.62 1018.57 1018.49 1018.51 1018.57
Thickness
5740 5740 5740 5741 5742 5741 5742 5743 5745 5745 5748 5749 5752 5754 5758 5759 5765 5770 5773 5799 5806 5811 5812 5814 5814 5814 5812 5802 5807 5808 5768 5765 5779 5796 5804 5838 5814 5789 5794 5783 5826 5829 5822 5823 5819
5736 5736 5736 5738 5738 5737 5737 5739 5741 5742 5744 5746 5749 5750 5754 5755 5762 5774 5809 5812 5811 5810 5808 5801 5799 5807 5792 5797 5796 5785 5766 5779 5809 5817 5805 5824 5826 5775 5773 5790 5803 5824 5831 5828 5818
5732 5733 5735 5736 5736 5735 5736 5737 5739 5740 5741 5743 5746 5747 5750 5751 5759 5790 5816 5814 5809 5809 5808 5806 5805 5798 5786 5796 5791 5789 5777 5797 5815 5825 5821 5817 5811 5816 5804 5745 5767 5789 5805 5810 5810
5729 5732 5732 5734 5734 5734 5735 5737 5738 5738 5739 5740 5742 5745 5748 5749 5752 5800 5808 5808 5807 5807 5801 5798 5794 5782 5784 5780 5797 5779 5799 5805 5817 5827 5820 5815 5808 5802 5798 5776 5781 5766 5795 5802 5804
5728 5729 5731 5733 5732 5733 5734 5735 5735 5736 5736 5737 5739 5742 5750 5747 5768 5806 5805 5802 5802 5800 5792 5786 5780 5778 5772 5786 5794 5787 5795 5810 5819 5819 5818 5825 5812 5797 5787 5782 5780 5734 5777 5790 5799
5726 5728 5728 5730 5731 5732 5733 5733 5734 5734 5733 5735 5736 5738 5740 5741 5807 5807 5804 5798 5798 5793 5790 5787 5784 5789 5782 5782 5782 5797 5800 5805 5815 5813 5815 5809 5797 5797 5774 5783 5775 5771 5770 5784 5784
5723 5725 5727 5729 5729 5730 5732 5728 5733 5731 5731 5733 5732 5737 5741 5753 5805 5805 5805 5800 5803 5796 5785 5794 5795 5783 5789 5778 5798 5796 5782 5795 5803 5808 5806 5816 5794 5787 5781 5777 5782 5790 5784 5791 5791
5721 5724 5726 5728 5728 5726 5727 5728 5731 5729 5730 5729 5730 5733 5740 5795 5802 5798 5802 5798 5805 5804 5797 5800 5800 5789 5786 5789 5783 5770 5776 5757 5791 5802 5812 5802 5768 5775 5780 5779 5770 5786 5795 5793 5794
5721 5723 5725 5724 5722 5724 5725 5728 5729 5728 5728 5727 5728 5731 5744 5797 5786 5799 5800 5786 5793 5796 5796 5799 5789 5772 5771 5752 5738 5756 5735 5752 5772 5799 5797 5793 5777 5798 5775 5768 5760 5775 5791 5788 5779
5721 5719 5719 5720 5721 5721 5724 5729 5729 5726 5728 5730 5734 5724 5759 5772 5791 5795 5800 5793 5779 5781 5773 5770 5760 5744 5741 5731 5711 5729 5733 5746 5754 5785 5791 5777 5778 5803 5777 5775 5763 5763 5766 5771 5768
5715 5716 5718 5718 5717 5717 5723 5731 5724 5722 5732 5739 5749 5753 5774 5789 5798 5785 5792 5781 5775 5766 5740 5754 5729 5718 5734 5742 5749 5750 5747 5744 5770 5795 5778 5777 5785 5791 5807 5788 5778 5784 5778 5774 5758
5714 5714 5715 5714 5715 5715 5712 5723 5742 5749 5732 5761 5764 5761 5782 5784 5762 5776 5788 5757 5751 5732 5749 5737 5721 5751 5761 5761 5752 5748 5740 5745 5766 5787 5781 5773 5774 5791 5799 5795 5792 5786 5777 5761 5749
5712 5712 5713 5714 5714 5713 5722 5737 5761 5759 5723 5753 5773 5768 5771 5774 5759 5761 5773 5760 5742 5732 5735 5724 5745 5770 5766 5762 5755 5751 5741 5744 5746 5773 5777 5766 5756 5772 5796 5797 5792 5782 5773 5766 5753
5712 5712 5712 5712 5710 5730 5731 5756 5758 5755 5697 5735 5755 5764 5771 5770 5752 5781 5781 5764 5747 5730 5738 5738 5760 5758 5754 5753 5756 5730 5761 5757 5750 5739 5718 5769 5715 5753 5776 5781 5787 5770 5768 5771 5764
5712 5712 5712 5711 5713 5723 5747 5760 5757 5739 5669 5740 5755 5790 5776 5758 5763 5761 5781 5762 5734 5733 5732 5724 5732 5731 5724 5719 5730 5709 5737 5748 5747 5732 5732 5734 5708 5731 5770 5764 5767 5767 5766 5767 5769
5713 5712 5712 5713 5715 5738 5752 5755 5743 5695 5667 5723 5747 5745 5747 5756 5751 5755 5751 5760 5753 5729 5733 5725 5731 5719 5711 5724 5720 5719 5715 5728 5733 5724 5686 5722 5708 5723 5699 5691 5714 5723 5720 5743 5765
5715 5715 5714 5720 5725 5752 5753 5735 5686 5672 5729 5710 5718 5735 5736 5732 5733 5732 5722 5704 5689 5681 5681 5707 5703 5708 5709 5699 5715 5703 5684 5646 5656 5665 5670 5688 5685 5648 5681 5687 5694 5709 5718 5747 5754
5719 5719 5728 5734 5744 5746 5739 5705 5676 5704 5703 5722 5721 5726 5718 5718 5715 5713 5703 5682 5685 5678 5667 5656 5660 5682 5694 5677 5670 5681 5661 5624 5611 5618 5626 5666 5669 5653 5672 5685 5693 5700 5702 5743 5769
5723 5730 5733 5752 5751 5740 5716 5683 5679 5695 5703 5703 5712 5702 5699 5704 5698 5695 5688 5671 5669 5666 5642 5634 5643 5676 5678 5675 5668 5658 5645 5667 5625 5627 5620 5643 5678 5671 5663 5674 5668 5679 5682 5684 5696
5721 5727 5736 5762 5761 5739 5703 5691 5695 5705 5704 5701 5680 5689 5674 5678 5675 5674 5677 5672 5667 5663 5657 5642 5620 5655 5658 5667 5667 5651 5659 5631 5632 5598 5610 5643 5633 5620 5628 5632 5642 5649 5649 5659 5660
5720 5716 5749 5764 5756 5719 5685 5696 5702 5708 5701 5687 5677 5672 5672 5662 5664 5662 5663 5660 5664 5657 5651 5627 5614 5619 5635 5628 5621 5630 5619 5625 5622 5614 5595 5588 5605 5608 5606 5610 5623 5631 5642 5640 5637
5717 5700 5750 5757 5707 5710 5687 5698 5691 5697 5694 5687 5685 5672 5663 5660 5656 5657 5654 5655 5663 5653 5629 5625 5607 5590 5606 5630 5634 5619 5596 5600 5585 5582 5592 5584 5581 5583 5596 5601 5607 5614 5627 5625 5619
5702 5710 5746 5741 5683 5685 5703 5696 5693 5685 5678 5674 5670 5670 5668 5654 5643 5650 5652 5661 5656 5640 5622 5620 5592 5574 5591 5611 5621 5601 5594 5587 5586 5580 5577 5563 5562 5571 5582 5589 5599 5605 5608 5610 5607
5697 5689 5710 5712 5703 5688 5684 5686 5677 5687 5679 5673 5667 5668 5657 5646 5646 5639 5641 5647 5647 5635 5628 5617 5594 5580 5561 5575 5588 5585 5581 5581 5570 5559 5559 5560 5556 5560 5565 5566 5569 5578 5582 5578 5582
5696 5688 5694 5671 5679 5680 5677 5678 5673 5667 5675 5670 5660 5658 5646 5634 5634 5630 5631 5630 5633 5626 5621 5605 5582 5583 5585 5591 5595 5577 5571 5570 5560 5556 5547 5551 5546 5552 5557 5557 5553 5555 5559 5555 5552
5672 5670 5682 5677 5683 5677 5666 5672 5666 5667 5662 5652 5648 5649 5642 5629 5624 5617 5619 5614 5612 5615 5606 5600 5576 5582 5575 5591 5581 5563 5560 5563 5559 5559 5553 5549 5546 5541 5547 5547 5538 5546 5546 5539 5538
5671 5674 5667 5670 5672 5667 5663 5667 5663 5662 5660 5658 5652 5640 5631 5629 5631 5628 5624 5617 5611 5604 5593 5591 5579 5568 5562 5580 5576 5563 5553 5553 5552 5554 5545 5534 5539 5541 5533 5530 5523 5526 5530 5530 5526